Location: Unspecified
(50.5997°N, 0.0000°E)
Time: 06:02:47
(UTC+00:00)

FREGAT DEB - Visible Passes

Search period start: 04 April 2026 00:00
Search period end: 14 April 2026 00:00
Orbit: 536 x 3237 km, 51.4° (Epoch: 28 March)

Date Brightness Start Highest point End Pass type
(mag) Time Alt. Az. Time Alt. Az. Time Alt. Az.
4 Apr ? 02:04:37 10° ESE 02:09:49 13° E 02:15:38 10° ENE visible
4 Apr ? 04:04:34 10° S 04:17:09 44° SE 04:34:05 10° ENE visible
5 Apr ? 02:55:00 10° SSE 03:05:30 28° ESE 03:19:08 10° ENE visible
6 Apr ? 01:48:10 10° SE 01:54:38 15° E 02:02:10 10° ENE visible
6 Apr ? 03:49:46 10° SSW 04:02:13 47° SE 04:19:27 10° ENE visible
7 Apr ? 02:39:52 10° S 02:50:25 31° ESE 03:04:37 10° ENE visible
7 Apr ? 04:46:20 10° SW 05:00:06 68° SE 05:19:09 10° ENE visible
8 Apr ? 01:32:12 10° SE 01:39:28 17° ESE 01:48:16 10° ENE visible
8 Apr ? 03:35:01 10° SSW 03:47:18 51° SE 04:04:46 10° ENE visible
9 Apr ? 02:25:57 14° S 02:35:23 34° ESE 02:50:01 10° ENE visible
9 Apr ? 04:31:47 10° SW 04:45:21 71° SE 05:04:28 10° ENE visible
10 Apr ? 01:16:54 11° SE 01:24:19 19° ESE 01:34:07 10° ENE visible
10 Apr ? 03:21:32 15° SSW 03:32:24 54° SE 03:50:03 10° ENE visible
11 Apr ? 02:12:25 19° S 02:20:22 37° ESE 02:35:22 10° ENE visible
11 Apr ? 04:17:17 10° SW 04:30:36 75° SSE 04:49:46 10° ENE visible
12 Apr ? 01:03:16 15° SE 01:09:11 21° ESE 01:19:47 10° ENE visible
12 Apr ? 03:07:53 19° SSW 03:17:33 58° SE 03:35:18 10° ENE visible
13 Apr ? 01:58:40 24° S 02:05:23 40° ESE 02:20:39 10° ENE visible
13 Apr ? 04:03:17 12° SW 04:15:53 78° SSE 04:35:03 10° ENE visible
